QPF
0.02 0.02 0.02 0.03 0.03 0.02 0.03 0.04 0.04 0.04 0.04 0.03 0.03 0.03 0.03 0.04 0.04 0.04 0.04 0.04 0.06 0.09 0.15 0.19 0.16 0.13 0.12 0.10 0.08 0.06 0.04 0.03 0.03 0.02 0.02 0.03 0.02 0.01 0.01 0.00 0.01 0.01 0.00
0.01 0.01 0.01 0.01 0.02 0.02 0.02 0.02 0.02 0.03 0.03 0.03 0.02 0.02 0.02 0.03 0.03 0.03 0.03 0.04 0.04 0.06 0.10 0.16 0.18 0.17 0.17 0.14 0.11 0.11 0.09 0.06 0.05 0.03 0.02 0.03 0.03 0.01 0.01 0.01 0.01 0.01 0.00
0.00 0.00 0.00 0.00 0.00 0.01 0.01 0.02 0.02 0.02 0.02 0.02 0.02 0.02 0.03 0.03 0.02 0.02 0.02 0.02 0.04 0.04 0.08 0.13 0.18 0.19 0.19 0.20 0.19 0.14 0.12 0.11 0.08 0.05 0.04 0.04 0.03 0.02 0.01 0.01 0.01 0.01 0.00
0.00 0.00 0.00 0.00 0.00 0.00 0.01 0.01 0.02 0.02 0.01 0.01 0.02 0.02 0.02 0.02 0.02 0.02 0.02 0.02 0.04 0.03 0.06 0.10 0.13 0.16 0.17 0.20 0.23 0.22 0.19 0.16 0.12 0.09 0.07 0.05 0.04 0.03 0.02 0.01 0.01 0.00 0.00
0.00 0.00 0.00 0.00 0.00 0.00 0.00 0.00 0.01 0.01 0.01 0.01 0.01 0.01 0.01 0.02 0.02 0.02 0.02 0.03 0.03 0.04 0.07 0.08 0.08 0.11 0.15 0.19 0.24 0.27 0.26 0.20 0.15 0.12 0.09 0.07 0.05 0.04 0.03 0.02 0.01 0.00 0.00
0.00 0.00 0.00 0.00 0.00 0.00 0.00 0.01 0.01 0.00 0.00 0.00 0.00 0.00 0.00 0.01 0.01 0.01 0.02 0.02 0.02 0.02 0.04 0.08 0.13 0.11 0.11 0.16 0.20 0.22 0.22 0.22 0.20 0.16 0.13 0.10 0.07 0.05 0.05 0.04 0.03 0.01 0.00
0.00 0.00 0.00 0.00 0.00 0.00 0.00 0.00 0.00 0.00 0.00 0.00 0.00 0.00 0.00 0.00 0.00 0.00 0.00 0.01 0.01 0.01 0.03 0.06 0.12 0.12 0.11 0.10 0.12 0.16 0.19 0.20 0.20 0.18 0.16 0.12 0.09 0.07 0.06 0.05 0.04 0.03 0.01
0.00 0.00 0.00 0.00 0.00 0.00 0.00 0.00 0.00 0.00 0.00 0.00 0.01 0.00 0.00 0.00 0.00 0.00 0.00 0.01 0.01 0.01 0.01 0.02 0.04 0.08 0.09 0.13 0.09 0.11 0.18 0.19 0.19 0.19 0.18 0.16 0.13 0.11 0.09 0.07 0.05 0.04 0.03
0.00 0.00 0.00 0.00 0.00 0.00 0.00 0.00 0.00 0.00 0.00 0.00 0.00 0.00 0.00 0.00 0.00 0.00 0.00 0.00 0.00 0.00 0.00 0.01 0.01 0.04 0.06 0.09 0.10 0.08 0.10 0.13 0.16 0.19 0.20 0.17 0.15 0.12 0.10 0.08 0.07 0.05 0.04
0.00 0.00 0.00 0.00 0.00 0.00 0.00 0.00 0.00 0.00 0.00 0.00 0.00 0.00 0.00 0.00 0.00 0.00 0.00 0.00 0.00 0.00 0.00 0.00 0.01 0.02 0.02 0.04 0.06 0.05 0.05 0.07 0.10 0.14 0.18 0.19 0.16 0.13 0.12 0.10 0.10 0.09 0.06
0.00 0.00 0.00 0.00 0.00 0.00 0.00 0.00 0.00 0.00 0.00 0.00 0.00 0.00 0.00 0.00 0.00 0.00 0.01 0.00 0.00 0.00 0.00 0.01 0.01 0.01 0.01 0.03 0.05 0.03 0.02 0.03 0.05 0.07 0.09 0.14 0.16 0.14 0.13 0.13 0.13 0.13 0.11
0.00 0.00 0.00 0.00 0.00 0.00 0.00 0.00 0.00 0.00 0.00 0.00 0.00 0.00 0.00 0.00 0.00 0.00 0.00 0.00 0.00 0.00 0.00 0.01 0.01 0.02 0.01 0.01 0.01 0.01 0.01 0.01 0.02 0.03 0.04 0.06 0.10 0.13 0.13 0.12 0.12 0.13 0.14
0.00 0.00 0.00 0.00 0.00 0.00 0.00 0.00 0.00 0.00 0.00 0.00 0.00 0.00 0.00 0.00 0.00 0.00 0.00 0.00 0.00 0.00 0.00 0.00 0.00 0.01 0.00 0.00 0.01 0.00 0.00 0.01 0.01 0.01 0.02 0.03 0.04 0.07 0.09 0.10 0.11 0.14 0.16
0.00 0.00 0.00 0.00 0.00 0.00 0.00 0.00 0.00 0.00 0.00 0.00 0.00 0.00 0.00 0.00 0.00 0.00 0.00 0.00 0.00 0.00 0.00 0.00 0.00 0.00 0.00 0.00 0.00 0.00 0.01 0.00 0.01 0.01 0.02 0.03 0.03 0.04 0.05 0.07 0.09 0.10 0.12
0.00 0.00 0.00 0.00 0.00 0.00 0.00 0.00 0.00 0.00 0.00 0.00 0.00 0.00 0.00 0.00 0.00 0.00 0.00 0.00 0.00 0.00 0.00 0.00 0.00 0.00 0.00 0.00 0.00 0.00 0.00 0.00 0.00 0.01 0.02 0.03 0.03 0.04 0.05 0.05 0.07 0.09 0.09
0.00 0.00 0.00 0.00 0.00 0.00 0.00 0.00 0.00 0.00 0.00 0.00 0.00 0.00 0.00 0.00 0.00 0.00 0.00 0.00 0.00 0.00 0.00 0.00 0.00 0.00 0.00 0.00 0.00 0.00 0.00 0.00 0.00 0.00 0.01 0.02 0.04 0.04 0.05 0.05 0.06 0.07 0.08
0.00 0.00 0.00 0.00 0.00 0.00 0.00 0.00 0.00 0.00 0.00 0.00 0.00 0.00 0.00 0.00 0.00 0.00 0.00 0.00 0.00 0.00 0.00 0.00 0.00 0.00 0.00 0.00 0.00 0.00 0.00 0.00 0.00 0.00 0.00 0.00 0.01 0.01 0.02 0.03 0.04 0.04 0.05
0.00 0.00 0.00 0.00 0.00 0.00 0.00 0.00 0.00 0.00 0.00 0.00 0.00 0.00 0.00 0.00 0.00 0.00 0.00 0.00 0.00 0.00 0.00 0.00 0.00 0.00 0.00 0.00 0.00 0.00 0.00 0.00 0.00 0.00 0.00 0.00 0.00 0.00 0.00 0.00 0.01 0.01 0.02
0.00 0.00 0.00 0.00 0.00 0.00 0.00 0.00 0.00 0.00 0.00 0.00 0.00 0.00 0.00 0.00 0.00 0.00 0.00 0.00 0.00 0.00 0.00 0.00 0.00 0.00 0.00 0.00 0.00 0.00 0.00 0.00 0.00 0.00 0.00 0.00 0.00 0.00 0.00 0.00 0.00 0.00 0.00
0.00 0.00 0.00 0.00 0.00 0.00 0.00 0.00 0.00 0.00 0.00 0.00 0.00 0.00 0.00 0.00 0.00 0.00 0.00 0.00 0.00 0.00 0.00 0.00 0.00 0.00 0.00 0.00 0.00 0.00 0.00 0.00 0.00 0.00 0.00 0.00 0.00 0.00 0.00 0.00 0.00 0.00 0.00
0.00 0.00 0.00 0.00 0.00 0.00 0.00 0.00 0.00 0.00 0.00 0.00 0.00 0.00 0.00 0.00 0.00 0.00 0.00 0.00 0.00 0.00 0.00 0.00 0.00 0.00 0.00 0.00 0.00 0.00 0.00 0.00 0.00 0.00 0.00 0.00 0.00 0.00 0.00 0.00 0.00 0.00 0.00
0.00 0.00 0.00 0.00 0.00 0.00 0.00 0.00 0.00 0.00 0.00 0.00 0.00 0.00 0.00 0.00 0.00 0.00 0.00 0.00 0.00 0.00 0.00 0.00 0.00 0.00 0.00 0.01 0.01 0.00 0.00 0.00 0.00 0.00 0.00 0.00 0.00 0.00 0.00 0.00 0.00 0.00 0.00
0.00 0.00 0.00 0.00 0.00 0.00 0.00 0.00 0.00 0.00 0.00 0.00 0.00 0.00 0.00 0.00 0.00 0.00 0.00 0.00 0.00 0.00 0.00 0.00 0.00 0.00 0.00 0.01 0.02 0.01 0.02 0.02 0.01 0.01 0.01 0.00 0.00 0.00 0.00 0.00 0.00 0.00 0.00
0.00 0.00 0.00 0.00 0.00 0.00 0.00 0.00 0.00 0.00 0.00 0.00 0.00 0.00 0.00 0.00 0.00 0.00 0.00 0.00 0.00 0.00 0.00 0.00 0.00 0.00 0.01 0.01 0.02 0.02 0.02 0.02 0.01 0.01 0.01 0.00 0.00 0.00 0.00 0.00 0.00 0.00 0.00
0.00 0.00 0.00 0.00 0.00 0.01 0.01 0.01 0.01 0.00 0.00 0.00 0.00 0.00 0.00 0.00 0.00 0.00 0.00 0.00 0.00 0.00 0.00 0.00 0.00 0.00 0.00 0.00 0.01 0.01 0.01 0.01 0.01 0.01 0.01 0.01 0.00 0.00 0.00 0.00 0.00 0.00 0.00
0.01 0.01 0.01 0.01 0.01 0.01 0.01 0.01 0.02 0.01 0.01 0.01 0.01 0.01 0.00 0.00 0.01 0.01 0.00 0.01 0.01 0.01 0.01 0.01 0.01 0.00 0.00 0.00 0.00 0.00 0.01 0.02 0.01 0.01 0.01 0.01 0.00 0.01 0.01 0.00 0.00 0.00 0.01
MSLP
1018.85 1018.75 1018.58 1018.38 1018.20 1018.09 1018.04 1018.08 1018.16 1018.24 1018.29 1018.28 1018.20 1018.05 1017.89 1017.75 1017.69 1017.73 1017.89 1018.17 1018.52 1018.91 1019.30 1019.65 1019.93 1020.16 1020.33 1020.48 1020.63 1020.78 1020.96 1021.15 1021.36 1021.57 1021.77 1021.97 1022.17 1022.37 1022.58 1022.82 1023.07 1023.33 1023.59
1019.04 1018.94 1018.76 1018.56 1018.36 1018.23 1018.17 1018.19 1018.27 1018.35 1018.42 1018.43 1018.37 1018.24 1018.09 1017.94 1017.84 1017.82 1017.91 1018.10 1018.37 1018.69 1019.01 1019.32 1019.60 1019.83 1020.03 1020.22 1020.40 1020.59 1020.80 1021.03 1021.26 1021.48 1021.70 1021.90 1022.10 1022.30 1022.51 1022.73 1022.98 1023.24 1023.50
1019.23 1019.16 1019.00 1018.81 1018.62 1018.48 1018.41 1018.41 1018.47 1018.55 1018.61 1018.63 1018.58 1018.47 1018.32 1018.16 1018.03 1017.96 1017.97 1018.07 1018.24 1018.46 1018.72 1018.97 1019.22 1019.44 1019.66 1019.87 1020.08 1020.32 1020.56 1020.82 1021.08 1021.33 1021.56 1021.77 1021.98 1022.17 1022.38 1022.60 1022.84 1023.10 1023.38
1019.41 1019.38 1019.27 1019.11 1018.94 1018.81 1018.73 1018.71 1018.74 1018.80 1018.84 1018.86 1018.82 1018.71 1018.57 1018.40 1018.24 1018.13 1018.07 1018.08 1018.15 1018.28 1018.45 1018.63 1018.83 1019.03 1019.23 1019.45 1019.69 1019.95 1020.23 1020.52 1020.80 1021.07 1021.32 1021.55 1021.76 1021.97 1022.18 1022.40 1022.65 1022.92 1023.21
1019.56 1019.59 1019.54 1019.43 1019.30 1019.18 1019.10 1019.05 1019.05 1019.07 1019.09 1019.09 1019.04 1018.95 1018.81 1018.65 1018.47 1018.32 1018.21 1018.14 1018.13 1018.17 1018.24 1018.34 1018.48 1018.63 1018.81 1019.02 1019.26 1019.53 1019.82 1020.13 1020.43 1020.71 1020.98 1021.22 1021.44 1021.66 1021.89 1022.13 1022.40 1022.69 1023.01
1019.68 1019.77 1019.79 1019.74 1019.65 1019.56 1019.47 1019.40 1019.37 1019.35 1019.33 1019.30 1019.25 1019.16 1019.03 1018.88 1018.71 1018.54 1018.39 1018.27 1018.18 1018.13 1018.12 1018.14 1018.20 1018.30 1018.43 1018.62 1018.84 1019.10 1019.38 1019.68 1019.98 1020.27 1020.54 1020.79 1021.02 1021.26 1021.50 1021.77 1022.06 1022.39 1022.75
1019.76 1019.91 1019.98 1020.00 1019.96 1019.89 1019.81 1019.73 1019.66 1019.61 1019.56 1019.50 1019.44 1019.35 1019.24 1019.10 1018.94 1018.78 1018.61 1018.45 1018.31 1018.19 1018.10 1018.05 1018.03 1018.06 1018.15 1018.28 1018.47 1018.69 1018.95 1019.23 1019.52 1019.79 1020.05 1020.29 1020.53 1020.77 1021.03 1021.32 1021.64 1022.01 1022.41
1019.79 1019.98 1020.11 1020.18 1020.19 1020.16 1020.09 1020.01 1019.92 1019.84 1019.76 1019.69 1019.61 1019.53 1019.43 1019.31 1019.17 1019.01 1018.84 1018.66 1018.48 1018.32 1018.17 1018.05 1017.98 1017.95 1017.97 1018.06 1018.19 1018.37 1018.59 1018.83 1019.07 1019.31 1019.54 1019.77 1019.99 1020.22 1020.49 1020.79 1021.14 1021.53 1021.96
1019.75 1019.97 1020.13 1020.25 1020.32 1020.33 1020.29 1020.22 1020.13 1020.03 1019.94 1019.85 1019.77 1019.69 1019.61 1019.51 1019.38 1019.24 1019.07 1018.89 1018.69 1018.49 1018.31 1018.15 1018.02 1017.95 1017.92 1017.95 1018.04 1018.17 1018.33 1018.51 1018.70 1018.89 1019.08 1019.26 1019.46 1019.67 1019.92 1020.22 1020.57 1020.97 1021.41
1019.64 1019.86 1020.06 1020.22 1020.33 1020.38 1020.38 1020.34 1020.26 1020.17 1020.08 1019.99 1019.91 1019.84 1019.76 1019.67 1019.57 1019.43 1019.27 1019.09 1018.89 1018.68 1018.48 1018.29 1018.14 1018.03 1017.97 1017.96 1018.00 1018.07 1018.18 1018.30 1018.43 1018.57 1018.70 1018.83 1018.98 1019.15 1019.37 1019.64 1019.97 1020.35 1020.79
1019.45 1019.66 1019.88 1020.07 1020.22 1020.32 1020.36 1020.36 1020.31 1020.25 1020.17 1020.09 1020.02 1019.95 1019.88 1019.80 1019.70 1019.58 1019.43 1019.25 1019.05 1018.84 1018.63 1018.44 1018.28 1018.16 1018.07 1018.03 1018.03 1018.06 1018.12 1018.19 1018.26 1018.34 1018.41 1018.49 1018.59 1018.71 1018.88 1019.11 1019.39 1019.74 1020.13
1019.18 1019.39 1019.61 1019.82 1020.01 1020.15 1020.24 1020.28 1020.28 1020.24 1020.19 1020.13 1020.07 1020.01 1019.95 1019.87 1019.78 1019.66 1019.51 1019.34 1019.15 1018.95 1018.75 1018.56 1018.40 1018.27 1018.18 1018.12 1018.10 1018.10 1018.11 1018.13 1018.16 1018.18 1018.21 1018.24 1018.29 1018.37 1018.49 1018.66 1018.89 1019.17 1019.50
1018.86 1019.06 1019.29 1019.52 1019.73 1019.91 1020.04 1020.12 1020.16 1020.17 1020.15 1020.11 1020.07 1020.02 1019.96 1019.89 1019.79 1019.67 1019.52 1019.35 1019.17 1018.98 1018.79 1018.62 1018.47 1018.35 1018.25 1018.18 1018.14 1018.11 1018.10 1018.09 1018.08 1018.07 1018.06 1018.06 1018.07 1018.11 1018.19 1018.31 1018.48 1018.70 1018.96
1018.53 1018.73 1018.96 1019.20 1019.43 1019.63 1019.79 1019.91 1019.98 1020.02 1020.03 1020.02 1020.00 1019.96 1019.91 1019.83 1019.74 1019.61 1019.47 1019.30 1019.13 1018.95 1018.77 1018.61 1018.47 1018.35 1018.25 1018.18 1018.12 1018.07 1018.03 1018.00 1017.97 1017.95 1017.92 1017.91 1017.91 1017.93 1017.98 1018.06 1018.18 1018.34 1018.54
1018.22 1018.43 1018.66 1018.91 1019.14 1019.35 1019.53 1019.66 1019.76 1019.82 1019.86 1019.87 1019.86 1019.84 1019.79 1019.72 1019.63 1019.51 1019.36 1019.20 1019.03 1018.85 1018.69 1018.53 1018.39 1018.27 1018.17 1018.08 1018.01 1017.94 1017.89 1017.84 1017.80 1017.77 1017.75 1017.73 1017.74 1017.76 1017.80 1017.86 1017.96 1018.07 1018.22
1017.95 1018.17 1018.42 1018.66 1018.89 1019.10 1019.27 1019.41 1019.52 1019.59 1019.64 1019.67 1019.68 1019.67 1019.63 1019.57 1019.48 1019.37 1019.23 1019.07 1018.90 1018.73 1018.57 1018.41 1018.27 1018.14 1018.02 1017.91 1017.82 1017.73 1017.66 1017.60 1017.55 1017.52 1017.50 1017.50 1017.51 1017.55 1017.59 1017.66 1017.75 1017.84 1017.95
1017.71 1017.96 1018.22 1018.46 1018.68 1018.87 1019.03 1019.15 1019.25 1019.33 1019.38 1019.42 1019.45 1019.45 1019.43 1019.38 1019.31 1019.20 1019.07 1018.92 1018.76 1018.60 1018.43 1018.27 1018.11 1017.96 1017.83 1017.69 1017.57 1017.46 1017.36 1017.28 1017.22 1017.18 1017.16 1017.16 1017.19 1017.24 1017.30 1017.38 1017.47 1017.57 1017.67
1017.47 1017.75 1018.02 1018.25 1018.46 1018.63 1018.77 1018.88 1018.96 1019.03 1019.09 1019.13 1019.17 1019.19 1019.19 1019.16 1019.10 1019.02 1018.91 1018.77 1018.62 1018.46 1018.29 1018.12 1017.95 1017.79 1017.62 1017.46 1017.31 1017.16 1017.03 1016.92 1016.83 1016.77 1016.73 1016.73 1016.76 1016.81 1016.88 1016.97 1017.07 1017.18 1017.29
1017.17 1017.48 1017.76 1017.99 1018.19 1018.34 1018.46 1018.55 1018.62 1018.68 1018.74 1018.79 1018.84 1018.87 1018.89 1018.89 1018.86 1018.80 1018.71 1018.60 1018.46 1018.31 1018.15 1017.98 1017.80 1017.62 1017.43 1017.24 1017.05 1016.87 1016.70 1016.55 1016.42 1016.32 1016.25 1016.22 1016.22 1016.25 1016.31 1016.39 1016.50 1016.62 1016.74
1016.75 1017.09 1017.38 1017.62 1017.81 1017.95 1018.06 1018.14 1018.20 1018.26 1018.31 1018.37 1018.43 1018.49 1018.53 1018.56 1018.56 1018.53 1018.47 1018.38 1018.27 1018.14 1017.99 1017.83 1017.65 1017.46 1017.25 1017.04 1016.83 1016.61 1016.40 1016.20 1016.02 1015.87 1015.75 1015.66 1015.60 1015.59 1015.61 1015.67 1015.76 1015.88 1016.02
1016.19 1016.54 1016.84 1017.09 1017.29 1017.43 1017.54 1017.62 1017.68 1017.74 1017.80 1017.87 1017.95 1018.02 1018.09 1018.14 1018.17 1018.17 1018.14 1018.09 1018.00 1017.90 1017.77 1017.62 1017.45 1017.27 1017.06 1016.84 1016.61 1016.37 1016.13 1015.89 1015.66 1015.44 1015.25 1015.09 1014.96 1014.87 1014.83 1014.84 1014.90 1015.01 1015.15
1015.49 1015.85 1016.16 1016.42 1016.63 1016.79 1016.91 1017.00 1017.07 1017.14 1017.21 1017.29 1017.38 1017.47 1017.55 1017.62 1017.68 1017.71 1017.71 1017.68 1017.63 1017.55 1017.45 1017.33 1017.18 1017.01 1016.81 1016.60 1016.37 1016.12 1015.86 1015.59 1015.32 1015.04 1014.78 1014.54 1014.34 1014.16 1014.05 1013.99 1013.99 1014.06 1014.18
1014.72 1015.07 1015.39 1015.66 1015.89 1016.07 1016.21 1016.32 1016.41 1016.49 1016.57 1016.65 1016.74 1016.84 1016.93 1017.01 1017.08 1017.12 1017.15 1017.15 1017.12 1017.07 1016.99 1016.89 1016.77 1016.62 1016.45 1016.26 1016.04 1015.80 1015.54 1015.26 1014.97 1014.66 1014.35 1014.04 1013.76 1013.51 1013.31 1013.17 1013.11 1013.12 1013.21
1013.96 1014.30 1014.61 1014.90 1015.14 1015.34 1015.50 1015.63 1015.74 1015.83 1015.91 1016.00 1016.08 1016.16 1016.24 1016.32 1016.38 1016.42 1016.45 1016.46 1016.45 1016.41 1016.36 1016.28 1016.18 1016.06 1015.92 1015.75 1015.57 1015.36 1015.12 1014.85 1014.56 1014.25 1013.91 1013.57 1013.24 1012.93 1012.66 1012.45 1012.31 1012.26 1012.29
1013.33 1013.64 1013.94 1014.22 1014.48 1014.70 1014.88 1015.02 1015.14 1015.23 1015.30 1015.36 1015.42 1015.47 1015.52 1015.56 1015.59 1015.62 1015.63 1015.63 1015.61 1015.58 1015.53 1015.46 1015.38 1015.28 1015.17 1015.04 1014.89 1014.72 1014.53 1014.30 1014.05 1013.76 1013.44 1013.10 1012.75 1012.41 1012.10 1011.83 1011.63 1011.51 1011.48
1012.89 1013.16 1013.43 1013.71 1013.96 1014.19 1014.38 1014.52 1014.63 1014.71 1014.75 1014.78 1014.79 1014.78 1014.77 1014.76 1014.74 1014.72 1014.69 1014.66 1014.62 1014.57 1014.51 1014.44 1014.36 1014.28 1014.19 1014.10 1013.99 1013.87 1013.74 1013.58 1013.38 1013.16 1012.89 1012.59 1012.26 1011.93 1011.60 1011.30 1011.05 1010.87 1010.76
Thickness
5726 5726 5722 5721 5723 5723 5722 5720 5720 5719 5719 5719 5720 5720 5720 5720 5721 5722 5723 5719 5718 5717 5716 5715 5714 5713 5713 5712 5712 5713 5712 5713 5713 5713 5713 5713 5713 5713 5712 5712 5711 5711 5710
5723 5722 5721 5719 5720 5720 5719 5718 5718 5717 5718 5717 5718 5717 5717 5718 5717 5717 5720 5719 5717 5716 5715 5714 5713 5712 5711 5711 5710 5710 5710 5710 5711 5711 5712 5712 5711 5711 5711 5710 5710 5710 5709
5718 5718 5719 5718 5717 5716 5715 5715 5715 5716 5716 5716 5716 5715 5716 5715 5716 5715 5716 5717 5718 5716 5714 5713 5712 5711 5710 5709 5709 5708 5708 5708 5708 5709 5709 5710 5710 5709 5709 5709 5709 5709 5708
5715 5715 5716 5716 5713 5715 5715 5714 5714 5715 5715 5715 5715 5715 5715 5714 5714 5713 5715 5715 5715 5717 5715 5712 5711 5710 5709 5708 5707 5706 5706 5706 5706 5706 5707 5707 5708 5708 5708 5707 5707 5707 5707
5713 5714 5713 5711 5712 5713 5713 5713 5712 5712 5712 5712 5714 5713 5714 5714 5712 5714 5714 5714 5713 5713 5714 5712 5710 5709 5708 5707 5706 5705 5704 5704 5704 5704 5704 5705 5706 5706 5706 5706 5706 5706 5706
5711 5712 5712 5709 5711 5712 5710 5708 5707 5707 5708 5709 5713 5713 5712 5712 5712 5712 5713 5714 5713 5712 5712 5712 5710 5709 5707 5706 5705 5704 5703 5703 5703 5703 5703 5703 5704 5704 5705 5705 5705 5705 5705
5710 5710 5712 5708 5709 5709 5706 5707 5706 5707 5707 5707 5709 5709 5711 5711 5710 5709 5710 5712 5712 5711 5711 5710 5709 5708 5707 5705 5704 5703 5702 5702 5702 5701 5701 5701 5701 5702 5703 5703 5703 5703 5704
5710 5711 5709 5710 5708 5706 5705 5704 5703 5705 5706 5706 5706 5706 5706 5705 5704 5708 5708 5707 5708 5709 5709 5708 5707 5705 5706 5706 5704 5702 5700 5700 5700 5700 5699 5699 5699 5700 5701 5701 5701 5702 5702
5711 5709 5708 5708 5706 5708 5706 5702 5701 5701 5703 5704 5703 5703 5703 5702 5703 5704 5701 5702 5702 5703 5705 5704 5704 5703 5703 5703 5702 5699 5699 5698 5698 5699 5698 5698 5698 5699 5699 5699 5700 5700 5700
5711 5709 5708 5706 5705 5707 5703 5704 5702 5701 5699 5703 5701 5699 5698 5697 5696 5698 5700 5700 5698 5698 5698 5700 5701 5699 5699 5699 5697 5695 5695 5695 5696 5696 5696 5696 5696 5696 5697 5697 5697 5698 5698
5712 5710 5708 5706 5705 5705 5703 5700 5699 5698 5699 5699 5699 5697 5695 5694 5694 5693 5692 5693 5696 5696 5695 5694 5695 5695 5694 5693 5692 5691 5690 5691 5691 5692 5693 5693 5694 5694 5694 5695 5695 5696 5696
5714 5711 5709 5706 5705 5705 5701 5699 5697 5697 5695 5693 5694 5695 5693 5692 5691 5690 5689 5688 5690 5692 5690 5690 5691 5690 5689 5689 5687 5684 5684 5685 5686 5687 5688 5689 5690 5691 5692 5692 5693 5694 5694
5716 5712 5711 5706 5705 5702 5700 5698 5695 5695 5693 5690 5689 5690 5690 5689 5688 5686 5685 5686 5685 5688 5685 5688 5687 5684 5685 5683 5681 5678 5679 5679 5680 5681 5682 5684 5685 5687 5688 5689 5690 5691 5692
5719 5714 5709 5706 5703 5701 5699 5696 5697 5694 5691 5688 5688 5685 5684 5686 5684 5683 5680 5679 5679 5683 5684 5682 5683 5681 5678 5677 5674 5672 5674 5674 5674 5675 5676 5678 5679 5681 5682 5684 5686 5687 5688
5717 5712 5708 5705 5702 5699 5697 5695 5695 5691 5689 5687 5687 5684 5682 5684 5681 5680 5678 5676 5672 5672 5676 5677 5676 5676 5672 5671 5668 5667 5668 5668 5667 5668 5669 5671 5672 5674 5676 5678 5680 5682 5683
5714 5710 5707 5704 5701 5698 5695 5692 5692 5690 5686 5684 5682 5679 5677 5680 5679 5676 5674 5672 5670 5667 5667 5672 5670 5672 5667 5665 5665 5662 5663 5662 5661 5663 5663 5664 5665 5667 5669 5671 5673 5675 5677
5711 5708 5705 5703 5700 5697 5694 5690 5690 5688 5684 5682 5680 5678 5674 5672 5673 5673 5671 5669 5667 5664 5661 5665 5667 5667 5660 5657 5659 5658 5659 5659 5662 5659 5658 5657 5658 5660 5662 5664 5666 5668 5670
5710 5707 5704 5701 5698 5696 5693 5689 5686 5686 5682 5680 5678 5675 5672 5672 5668 5666 5665 5664 5663 5660 5656 5655 5658 5659 5658 5655 5653 5652 5654 5657 5656 5656 5653 5652 5652 5653 5654 5656 5658 5660 5662
5708 5706 5702 5698 5696 5694 5691 5687 5685 5682 5680 5678 5675 5672 5670 5667 5664 5663 5659 5659 5659 5658 5655 5653 5653 5654 5653 5653 5650 5649 5650 5649 5649 5652 5649 5648 5647 5646 5647 5649 5651 5653 5655
5706 5703 5700 5697 5694 5691 5688 5685 5682 5679 5677 5675 5672 5670 5667 5664 5661 5658 5656 5653 5652 5650 5650 5648 5649 5650 5648 5648 5644 5643 5645 5647 5646 5647 5647 5645 5643 5641 5642 5643 5644 5646 5648
5705 5701 5697 5694 5692 5689 5687 5684 5680 5677 5674 5671 5669 5667 5665 5661 5658 5654 5653 5652 5648 5645 5646 5646 5645 5645 5644 5641 5640 5641 5640 5639 5640 5640 5640 5640 5641 5641 5642 5639 5639 5640 5641
5701 5698 5694 5692 5689 5689 5686 5679 5675 5674 5672 5669 5666 5664 5662 5658 5653 5647 5644 5641 5639 5638 5639 5638 5639 5638 5635 5635 5633 5631 5631 5631 5631 5635 5632 5632 5634 5635 5636 5636 5638 5636 5635
5698 5694 5691 5689 5687 5685 5680 5674 5667 5666 5667 5666 5663 5660 5659 5661 5653 5649 5643 5636 5633 5629 5627 5627 5630 5629 5629 5628 5624 5623 5622 5621 5620 5623 5622 5623 5626 5627 5630 5632 5630 5629 5628
5695 5691 5688 5686 5684 5682 5675 5669 5663 5659 5661 5661 5659 5657 5655 5653 5651 5646 5643 5640 5637 5633 5628 5622 5622 5623 5621 5619 5617 5614 5613 5613 5614 5614 5613 5613 5617 5620 5624 5625 5625 5624 5623
5689 5686 5684 5682 5679 5677 5671 5665 5657 5657 5657 5657 5656 5655 5652 5649 5646 5638 5634 5633 5632 5631 5628 5624 5621 5618 5614 5610 5607 5606 5608 5608 5611 5612 5613 5609 5611 5613 5616 5619 5621 5619 5618
5682 5680 5678 5676 5673 5671 5666 5659 5651 5651 5653 5653 5653 5651 5647 5644 5641 5633 5628 5627 5626 5626 5624 5623 5616 5612 5609 5606 5601 5598 5601 5603 5605 5607 5608 5604 5605 5605 5606 5613 5615 5616 5615